When you browse on this site, cookies collect data to enhance your experience and personalize the content and advertising you see.
Visit our Privacy Policy to learn more. By continuing to use the site, you agree to this use of cookies and data.
  • In Austria
  • List of Countries
  • For 7 days
  • Water Temperature
  • Weather Map
  • News
  • Weather Widgets
  • user-avatar
    Login

    Hourly Weather Zaprose

    Today, 23 October, Wednesday

    Time Temperature Precipitation Wind Pressure Humidity
    00:00 +14°C° 0 mm 2 mps 754 mmHg 89%
    01:00 +13°C° 0 mm 2 mps 754 mmHg 91%
    02:00 +13°C° 0 mm 2 mps 754 mmHg 93%
    03:00 +13°C° 0 mm 2 mps 754 mmHg 93%
    04:00 +13°C° 0 mm 1 mps 754 mmHg 93%
    05:00 +12°C° 0 mm 1 mps 754 mmHg 94%
    06:00 +13°C° 0 mm 1 mps 754 mmHg 93%
    07:00 +13°C° 0 mm 1 mps 754 mmHg 92%
    08:00 +13°C° 0 mm 1 mps 754 mmHg 91%
    09:00 +15°C° 0 mm 1 mps 754 mmHg 84%
    10:00 +16°C° 0 mm 1 mps 754 mmHg 77%
    11:00 +18°C° 0 mm 2 mps 754 mmHg 71%
    12:00 +18°C° 0 mm 2 mps 754 mmHg 68%
    13:00 +19°C° 0 mm 2 mps 754 mmHg 66%
    14:00 +19°C° 0 mm 2 mps 754 mmHg 64%
    15:00 +18°C° 0 mm 2 mps 754 mmHg 70%
    16:00 +17°C° 0 mm 2 mps 754 mmHg 75%
    17:00 +16°C° 0 mm 2 mps 754 mmHg 80%
    18:00 +15°C° 0 mm 2 mps 754 mmHg 82%
    19:00 +14°C° 0 mm 2 mps 754 mmHg 84%
    20:00 +13°C° 0 mm 2 mps 754 mmHg 86%
    21:00 +13°C° 0 mm 1 mps 754 mmHg 86%
    22:00 +12°C° 0 mm 1 mps 754 mmHg 85%
    23:00 +12°C° 0 mm 1 mps 754 mmHg 84%

    Tomorrow, 24 October, Thursday

    Time Temperature Precipitation Wind Pressure Humidity
    00:00 +11°C° 0 mm 1 mps 754 mmHg 85%
    01:00 +11°C° 0 mm 1 mps 754 mmHg 86%
    02:00 +11°C° 0 mm 1 mps 754 mmHg 86%
    03:00 +10°C° 0 mm 1 mps 754 mmHg 88%
    04:00 +10°C° 0 mm 1 mps 754 mmHg 89%
    05:00 +10°C° 0 mm 1 mps 754 mmHg 90%
    06:00 +10°C° 0 mm 1 mps 754 mmHg 90%
    07:00 +9°C° 0 mm 2 mps 754 mmHg 90%
    08:00 +9°C° 0 mm 2 mps 754 mmHg 89%
    09:00 +12°C° 0 mm 2 mps 754 mmHg 83%
    10:00 +14°C° 0 mm 2 mps 754 mmHg 77%
    11:00 +16°C° 0 mm 2 mps 754 mmHg 71%
    12:00 +17°C° 0 mm 2 mps 753 mmHg 69%
    13:00 +18°C° 0 mm 2 mps 753 mmHg 66%
    14:00 +19°C° 0 mm 2 mps 753 mmHg 64%
    15:00 +18°C° 0 mm 2 mps 752 mmHg 70%
    16:00 +16°C° 0 mm 2 mps 752 mmHg 75%
    17:00 +15°C° 0 mm 2 mps 752 mmHg 81%
    18:00 +13°C° 0 mm 3 mps 752 mmHg 83%
    19:00 +13°C° 0 mm 3 mps 752 mmHg 86%
    20:00 +12°C° 0 mm 3 mps 752 mmHg 89%
    21:00 +12°C° 0 mm 3 mps 752 mmHg 90%
    22:00 +12°C° 0 mm 3 mps 752 mmHg 91%
    23:00 +11°C° 0 mm 3 mps 752 mmHg 93%

    Day after tomorrow, 25 October, Friday

    Time Temperature Precipitation Wind Pressure Humidity
    00:00 +11°C° 0 mm 3 mps 752 mmHg 93%
    01:00 +11°C° 0 mm 3 mps 752 mmHg 94%
    02:00 +11°C° 0 mm 3 mps 752 mmHg 94%
    03:00 +11°C° 0 mm 3 mps 752 mmHg 94%
    04:00 +11°C° 0 mm 3 mps 752 mmHg 94%
    05:00 +10°C° 0 mm 3 mps 751 mmHg 93%
    06:00 +11°C° 0 mm 3 mps 751 mmHg 92%
    07:00 +11°C° 0 mm 3 mps 751 mmHg 90%
    08:00 +11°C° 0 mm 3 mps 751 mmHg 88%
    09:00 +13°C° 0 mm 3 mps 751 mmHg 79%
    10:00 +14°C° 0 mm 3 mps 751 mmHg 70%
    11:00 +17°C° 0 mm 3 mps 751 mmHg 61%
    12:00 +18°C° 0 mm 3 mps 751 mmHg 59%
    13:00 +19°C° 0 mm 3 mps 751 mmHg 57%
    14:00 +20°C° 0 mm 3 mps 751 mmHg 55%
    15:00 +18°C° 0 mm 3 mps 751 mmHg 61%
    16:00 +17°C° 0 mm 2 mps 751 mmHg 67%
    17:00 +16°C° 0 mm 2 mps 751 mmHg 73%
    18:00 +15°C° 0 mm 2 mps 751 mmHg 77%
    19:00 +14°C° 0 mm 2 mps 752 mmHg 80%
    20:00 +13°C° 0 mm 2 mps 752 mmHg 83%
    21:00 +13°C° 0 mm 2 mps 752 mmHg 86%
    22:00 +13°C° 0 mm 2 mps 753 mmHg 89%
    23:00 +12°C° 0 mm 2 mps 753 mmHg 92%

    26 October, Saturday

    Time Temperature Precipitation Wind Pressure Humidity
    00:00 +12°C° 0 mm 2 mps 753 mmHg 93%
    01:00 +12°C° 0 mm 2 mps 754 mmHg 94%
    02:00 +11°C° 0 mm 1 mps 754 mmHg 94%
    03:00 +11°C° 0 mm 1 mps 754 mmHg 94%
    04:00 +11°C° 0 mm 1 mps 754 mmHg 94%
    05:00 +11°C° 0 mm 1 mps 754 mmHg 94%
    06:00 +11°C° 0 mm 1 mps 754 mmHg 93%
    07:00 +11°C° 0 mm 1 mps 754 mmHg 91%
    08:00 +10°C° 0 mm 0 mps 754 mmHg 90%
    09:00 +12°C° 0 mm 1 mps 754 mmHg 84%
    10:00 +14°C° 0 mm 1 mps 754 mmHg 77%
    11:00 +16°C° 0 mm 2 mps 754 mmHg 71%
    12:00 +17°C° 0 mm 2 mps 753 mmHg 69%
    13:00 +17°C° 0 mm 3 mps 753 mmHg 68%
    14:00 +18°C° 0 mm 3 mps 752 mmHg 66%
    15:00 +17°C° 0 mm 3 mps 752 mmHg 72%
    16:00 +16°C° 0 mm 2 mps 751 mmHg 78%
    17:00 +15°C° 0 mm 2 mps 751 mmHg 84%
    18:00 +14°C° 0 mm 2 mps 750 mmHg 86%
    19:00 +13°C° 0 mm 3 mps 750 mmHg 87%
    20:00 +12°C° 0 mm 3 mps 750 mmHg 89%
    21:00 +12°C° 0 mm 3 mps 750 mmHg 89%
    22:00 +12°C° 0 mm 3 mps 750 mmHg 88%
    23:00 +12°C° 0 mm 3 mps 750 mmHg 88%

    27 October, Sunday

    Time Temperature Precipitation Wind Pressure Humidity
    00:00 +12°C° 0 mm 3 mps 749 mmHg 87%
    01:00 +11°C° 0 mm 3 mps 749 mmHg 86%
    02:00 +11°C° 0 mm 3 mps 749 mmHg 86%
    03:00 +11°C° 0 mm 3 mps 749 mmHg 86%
    04:00 +11°C° 0 mm 3 mps 749 mmHg 85%
    05:00 +11°C° 0 mm 3 mps 748 mmHg 85%
    06:00 +11°C° 0 mm 3 mps 748 mmHg 84%
    07:00 +11°C° 0 mm 4 mps 748 mmHg 84%
    08:00 +11°C° 0 mm 4 mps 748 mmHg 83%
    09:00 +12°C° 0 mm 4 mps 748 mmHg 77%
    10:00 +14°C° 0 mm 5 mps 748 mmHg 71%
    11:00 +15°C° 0 mm 5 mps 747 mmHg 65%
    12:00 +16°C° 0 mm 5 mps 747 mmHg 62%
    13:00 +17°C° 0 mm 6 mps 747 mmHg 58%
    14:00 +19°C° 0 mm 6 mps 746 mmHg 55%
    15:00 +16°C° 0 mm 5 mps 746 mmHg 60%
    16:00 +15°C° 0 mm 4 mps 746 mmHg 65%
    17:00 +14°C° 0 mm 4 mps 746 mmHg 70%
    18:00 +14°C° 0 mm 4 mps 746 mmHg 73%
    19:00 +13°C° 0 mm 4 mps 747 mmHg 75%
    20:00 +13°C° 0 mm 4 mps 747 mmHg 78%
    21:00 +12°C° 0.1 mm 4 mps 748 mmHg 77%
    22:00 +12°C° 0.1 mm 5 mps 748 mmHg 75%
    23:00 +10°C° 0.1 mm 5 mps 748 mmHg 74%

    28 October, Monday

    Time Temperature Precipitation Wind Pressure Humidity
    00:00 +10°C° 0 mm 4 mps 749 mmHg 74%
    01:00 +9°C° 0 mm 3 mps 749 mmHg 74%
    02:00 +8°C° 0 mm 3 mps 749 mmHg 74%
    03:00 +7°C° 0 mm 2 mps 749 mmHg 78%
    04:00 +7°C° 0 mm 2 mps 749 mmHg 82%
    05:00 +6°C° 0 mm 2 mps 749 mmHg 86%
    06:00 +6°C° 0 mm 2 mps 749 mmHg 85%
    07:00 +6°C° 0 mm 2 mps 749 mmHg 84%
    08:00 +5°C° 0 mm 3 mps 749 mmHg 83%
    09:00 +7°C° 0 mm 3 mps 749 mmHg 74%
    10:00 +7°C° 0 mm 4 mps 749 mmHg 66%
    11:00 +8°C° 0 mm 4 mps 749 mmHg 58%
    12:00 +8°C° 0 mm 4 mps 749 mmHg 57%
    13:00 +9°C° 0 mm 5 mps 748 mmHg 56%
    14:00 +9°C° 0 mm 5 mps 748 mmHg 55%
    15:00 +10°C° 0 mm 4 mps 748 mmHg 58%
    16:00 +8°C° 0 mm 4 mps 748 mmHg 61%
    17:00 +8°C° 0 mm 3 mps 747 mmHg 63%
    18:00 +7°C° 0 mm 3 mps 747 mmHg 67%
    19:00 +5°C° 0 mm 3 mps 747 mmHg 71%
    20:00 +4°C° 0 mm 3 mps 748 mmHg 75%
    21:00 +5°C° 0 mm 3 mps 748 mmHg 71%
    22:00 +5°C° 0 mm 3 mps 748 mmHg 67%
    23:00 +5°C° 0 mm 4 mps 748 mmHg 63%

    29 October, Tuesday

    Time Temperature Precipitation Wind Pressure Humidity
    00:00 +5°C° 0 mm 4 mps 747 mmHg 64%
    01:00 +4°C° 0 mm 4 mps 747 mmHg 66%
    02:00 +4°C° 0 mm 4 mps 747 mmHg 68%
    03:00 +4°C° 0 mm 4 mps 747 mmHg 72%
    04:00 +3°C° 0 mm 3 mps 747 mmHg 76%
    05:00 +3°C° 0 mm 3 mps 747 mmHg 81%
    06:00 +3°C° 0 mm 4 mps 747 mmHg 81%
    07:00 +3°C° 0 mm 4 mps 747 mmHg 81%
    08:00 +3°C° 0 mm 4 mps 747 mmHg 80%
    09:00 +3°C° 0.1 mm 4 mps 747 mmHg 80%
    10:00 +4°C° 0.1 mm 4 mps 747 mmHg 80%
    11:00 +4°C° 0.1 mm 4 mps 748 mmHg 80%
    12:00 +3°C° 0.4 mm 5 mps 748 mmHg 81%
    13:00 +2°C° 0.4 mm 5 mps 748 mmHg 81%
    14:00 +2°C° 0.4 mm 5 mps 749 mmHg 81%
    15:00 +1°C° 0 mm 5 mps 749 mmHg 75%
    16:00 0°C° 0 mm 5 mps 750 mmHg 70%
    17:00 0°C° 0 mm 5 mps 750 mmHg 65%
    18:00 -1°C° 0 mm 4 mps 751 mmHg 66%
    19:00 -2°C° 0 mm 4 mps 752 mmHg 67%
    20:00 -2°C° 0 mm 3 mps 753 mmHg 68%
    21:00 -2°C° 0 mm 3 mps 753 mmHg 71%
    22:00 -2°C° 0 mm 3 mps 754 mmHg 74%
    23:00 -2°C° 0 mm 3 mps 754 mmHg 77%
    Show more